Terminal Aerodrome Forecast
Issued by NWS Wilmington, OH

Current Version | Previous Version | Text Only | Print | Product List | Glossary Off
Versions: 1 2 3 4 5 6 7 8 9 10 11 12 13 14 15 16 17 18 19 20 21 22 23 24 25 26 27 28 29 30 31 32 33

000
FTUS41 KILN 260500
TAFCVG
TAF
KCVG 260536Z 2606/2712 20004KT P6SM BKN080
     FM261600 22011G18KT P6SM SCT040 BKN250
     FM270200 23006KT P6SM VCTS SCT040CB OVC150
      TEMPO 2704/2706 2SM -TSRA OVC020CB
     FM270900 18006KT P6SM BKN100=

USA.gov is the U.S. government's official web portal to all federal, state and local government web resources and services.